Weather History for EDDS - July, 2013

Change the Weather History Date:

Saturday, July 20, 2013

  Actual Average Record
Temperature  
Mean Temperature 72 °F -  
Max Temperature 84 °F 73 °F 95 °F (1998)
Min Temperature 61 °F 54 °F 48 °F (1996)
Cooling Degree Days 8    
Growing Degree Days 22 (Base 50)    
Moisture  
Dew Point 54 °F    
Average Humidity 48    
Maximum Humidity 73    
Minimum Humidity 23    
Precipitation  
Precipitation 0.00 in - - ()
Sea Level Pressure  
Sea Level Pressure 30.08 in    
Wind  
Wind Speed 5 mph ()    
Max Wind Speed 11 mph    
Max Gust Speed -    
Visibility 6.2 miles    
Events      
Averages and records for this station are not official NWS values.
T = Trace of Precipitation, MM = Missing Value Source: Averaged Metar Reports

Daily Weather History Graph

Daily Weather History Graph

Search for Another Location

Airport or City:

Trip Planner

Search our weather history database for the weather conditions in past years. The results will help you decide how hot, cold, wet, or windy it might be!

Date:

Astronomy

Jul. 20, 2013 Rise Set
Actual Time 5:41 AM CEST 9:16 PM CEST
Civil Twilight 5:02 AM CEST 9:55 PM CEST
Nautical Twilight 4:09 AM CEST 10:47 PM CEST
Astronomical Twilight 2:56 AM CEST 12:00 AM CEST
Moon 7:02 PM CEST (7/20) 3:05 AM CEST (7/20)
Length of Visible Light 16h 52m
Length of Day
15h 34m
Waxing Gibbous, 92% of the Moon is Illuminated
Jul 20
Waxing Gibbous
Jul 22
Full
Jul 29
Last Quarter
Aug 6
New
Aug 14
First Quarter

Hourly Weather History & Observations

Time (CEST) Temp. Heat Index Dew Point Humidity Pressure Visibility Wind Dir Wind Speed Gust Speed Precip Events Conditions
12:00 AM 71 °F - 52 °F 40% 30.09 in 31 mi NW 2.2 mph - -  
12:20 AM 71.6 °F - 51.8 °F 50% 30.12 in - North 5.8 mph - N/A   Clear
12:50 AM 69.8 °F - 51.8 °F 53% 30.12 in - North 5.8 mph - N/A   Clear
1:00 AM 69 °F - 53 °F 45% 30.09 in 31 mi NNW 6.7 mph - -  
1:20 AM 69.8 °F - 51.8 °F 53% 30.12 in - North 4.6 mph - N/A   Clear
1:50 AM 68.0 °F - 51.8 °F 56% 30.12 in - North 4.6 mph - N/A   Clear
2:00 AM 68 °F - 53 °F 48% 30.09 in 31 mi NNW 4.5 mph - -   Clear
2:20 AM 68.0 °F - 53.6 °F 60% 30.12 in - North 6.9 mph - N/A   Clear
2:50 AM 66.2 °F - 53.6 °F 64% 30.12 in - North 6.9 mph - N/A   Clear
3:00 AM 66 °F - 54 °F 55% 30.09 in 31 mi NNW 6.7 mph - -  
3:20 AM 64.4 °F - 53.6 °F 68% 30.09 in - North 5.8 mph - N/A   Clear
3:50 AM 64.4 °F - 53.6 °F 68% 30.09 in - North 5.8 mph - N/A   Clear
4:00 AM 65 °F - 54 °F 58% 30.09 in 31 mi NW 2.2 mph - -  
4:20 AM 62.6 °F - 53.6 °F 72% 30.09 in - Variable 1.2 mph - N/A   Clear
4:50 AM 62.6 °F - 53.6 °F 72% 30.09 in - NNW 4.6 mph - N/A   Clear
5:20 AM 62.6 °F - 53.6 °F 72% 30.09 in - NNW 4.6 mph - N/A   Clear
5:50 AM 62.6 °F - 53.6 °F 72% 30.09 in - NNW 5.8 mph - N/A   Clear
6:00 AM 62 °F - 54 °F 68% 30.09 in 31 mi WNW 4.5 mph - -   Clear
6:20 AM 62.6 °F - 53.6 °F 72% 30.09 in - NNW 5.8 mph - N/A   Clear
6:50 AM 64.4 °F - 55.4 °F 73% 30.09 in - NNW 4.6 mph - N/A   Clear
7:00 AM 64 °F - 55 °F 65% 30.09 in 31 mi WNW 2.2 mph - -   Clear
7:20 AM 64.4 °F - 55.4 °F 73% 30.09 in - NNW 3.5 mph - N/A   Clear
7:50 AM 66.2 °F - 55.4 °F 68% 30.09 in - North 4.6 mph - N/A   Clear
8:00 AM 67 °F - 56 °F 60% 30.08 in 31 mi North 4.5 mph - -   Clear
8:20 AM 68.0 °F - 55.4 °F 64% 30.12 in - North 3.5 mph - N/A   Clear
8:50 AM 68.0 °F - 55.4 °F 64% 30.12 in - NE 3.5 mph - N/A   Clear
9:00 AM 69 °F - 55 °F 52% 30.09 in 28 mi NE 4.5 mph - -   Clear
9:20 AM 69.8 °F - 55.4 °F 60% 30.12 in - Variable 3.5 mph - N/A   Clear
9:50 AM 71.6 °F - 55.4 °F 57% 30.12 in - NW 2.3 mph - N/A   Clear
10:00 AM 72 °F - 56 °F 47% 30.09 in 28 mi NW 2.2 mph - -   Clear
10:20 AM 73.4 °F - 55.4 °F 53% 30.12 in - ENE 2.3 mph - N/A   Clear
10:50 AM 75.2 °F - 55.4 °F 50% 30.12 in 6.2 mi NE 3.5 mph - N/A   Partly Cloudy
11:20 AM 77.0 °F - 55.4 °F 47% 30.12 in 6.2 mi NNE 3.5 mph - N/A   Partly Cloudy
11:50 AM 78.8 °F - 55.4 °F 44% 30.12 in - NNE 5.8 mph - N/A   Clear
12:00 PM 78 °F - 56 °F 37% 30.06 in 28 mi NNE 6.7 mph - -   Scattered Clouds
12:20 PM 78.8 °F - 53.6 °F 42% 30.12 in - North 5.8 mph - N/A   Clear
12:50 PM 80.6 °F 80.3 °F 53.6 °F 39% 30.12 in - North 5.8 mph - N/A   Clear
1:00 PM 80 °F - 55 °F 32% 30.05 in 28 mi North 6.7 mph - -   Scattered Clouds
1:20 PM 80.6 °F 80.3 °F 53.6 °F 39% 30.09 in - ENE 4.6 mph - N/A   Clear
1:50 PM 80.6 °F 80.5 °F 55.4 °F 42% 30.09 in - North 6.9 mph - N/A   Clear
2:00 PM 81 °F - 54 °F 29% 30.04 in 37 mi North 8.9 mph - -   Scattered Clouds
2:20 PM 82.4 °F 81.4 °F 53.6 °F 37% 30.09 in - Variable 3.5 mph - N/A   Clear
2:50 PM 84.2 °F - 51.8 °F 33% 30.09 in - NNW 8.1 mph - N/A   Clear
3:00 PM 83 °F - 53 °F 25% 30.02 in 37 mi NNW 8.9 mph - -   Scattered Clouds
3:20 PM 82.4 °F 81.4 °F 53.6 °F 37% 30.06 in - North 8.1 mph - N/A   Clear
3:50 PM 84.2 °F 82.8 °F 53.6 °F 35% 30.06 in - North 6.9 mph - N/A   Clear
4:00 PM 83 °F - 54 °F 27% 30.01 in 37 mi North 6.7 mph - -   Scattered Clouds
4:20 PM 82.4 °F - 51.8 °F 35% 30.06 in - North 5.8 mph - N/A   Clear
4:50 PM 84.2 °F - 51.8 °F 33% 30.06 in - NNW 6.9 mph - N/A   Clear
5:20 PM 84.2 °F - 51.8 °F 33% 30.06 in - North 9.2 mph - N/A   Clear
5:50 PM 84.2 °F - 51.8 °F 33% 30.06 in - NNW 8.1 mph - N/A   Clear
6:00 PM 85 °F - 53 °F 23% 29.99 in 37 mi NNW 8.9 mph - -   Scattered Clouds
6:20 PM 84.2 °F - 50.0 °F 30% 30.06 in - North 9.2 mph - N/A   Clear
6:50 PM 84.2 °F 82.8 °F 53.6 °F 35% 30.06 in - NNW 10.4 mph - N/A   Clear
7:00 PM 84 °F - 54 °F 25% 29.99 in 37 mi NNW 11.2 mph - -   Scattered Clouds
7:20 PM 82.4 °F 81.4 °F 53.6 °F 37% 30.06 in - North 10.4 mph - N/A   Clear
7:50 PM 82.4 °F 81.7 °F 55.4 °F 39% 30.04 in - North 9.2 mph - N/A   Clear
8:00 PM 82 °F - 56 °F 30% 29.99 in 37 mi North 8.9 mph - -   Scattered Clouds
8:20 PM 80.6 °F 80.3 °F 53.6 °F 39% 30.06 in - North 9.2 mph - N/A   Clear
8:50 PM 78.8 °F - 55.4 °F 44% 30.06 in - North 9.2 mph - N/A   Clear
9:00 PM 79 °F - 56 °F 34% 30.01 in 37 mi North 8.9 mph - -   Clear
9:20 PM 77.0 °F - 55.4 °F 47% 30.06 in - North 6.9 mph - N/A   Clear
9:50 PM 75.2 °F - 55.4 °F 50% 30.09 in - North 6.9 mph - N/A   Clear
10:00 PM 76 °F - 56 °F 39% 30.03 in 37 mi North 6.7 mph - -   Clear
10:20 PM 73.4 °F - 55.4 °F 53% 30.09 in - North 5.8 mph - N/A   Clear
10:50 PM 73.4 °F - 55.4 °F 53% 30.09 in - North 4.6 mph - N/A   Clear
11:20 PM 73.4 °F - 53.6 °F 50% 30.09 in - NNE 2.3 mph - N/A   Clear
11:50 PM 71.6 °F - 53.6 °F 53% 30.09 in - NNE 2.3 mph - N/A   Clear